Helicity
95 71 9 -28 -10 12 50 29 3 16 82 111 105 16 93 119 112 173 152 158 185 90 38 2 -20 10 -46 -93 -88 -51 -14 -7 -17 -23 18 33 16 29 36 31 29 40 18 10
70 -33 4 -8 8 76 25 39 22 -12 70 65 53 70 48 108 115 74 129 78 190 63 68 8 -9 5 22 -42 -82 -76 -41 -11 -6 3 32 38 32 27 28 11 26 49 48 15
-2 -19 41 -42 5 30 46 69 90 20 41 36 32 15 90 69 58 96 66 -15 10 80 97 132 72 51 36 22 -36 -45 -16 -12 -11 -17 19 40 35 22 23 21 30 43 39 62
26 11 5 -4 23 94 73 85 47 60 57 27 53 38 3 53 92 138 108 55 9 70 131 53 94 90 70 78 12 8 -20 0 -28 32 1 -3 2 8 12 7 23 34 9 35
70 98 21 43 7 62 -2 55 83 109 92 31 32 45 19 37 34 95 113 93 49 -27 159 121 104 115 111 88 57 54 35 14 30 41 4 5 10 2 10 10 14 33 25 17
106 34 25 4 20 23 67 140 145 112 78 43 43 74 40 9 -29 -39 -1 78 151 69 88 191 115 61 112 103 48 44 87 91 78 65 32 41 -9 -12 1 16 7 27 35 20
-13 -46 -46 -13 -12 60 102 155 114 89 84 32 43 78 36 -25 -55 -53 -38 -23 107 195 224 131 137 150 172 218 127 95 123 131 107 57 59 65 -3 -5 -7 -11 -12 -7 1 16
37 33 3 -6 44 29 46 97 89 60 45 31 60 19 0 -28 -35 -30 -31 -28 101 166 154 178 170 170 194 186 183 140 47 124 111 41 67 62 71 11 9 -2 17 -8 -12 -14
42 13 -3 -5 -12 59 27 55 74 107 116 60 59 57 14 -17 -23 -12 1 21 35 112 191 229 209 207 240 112 136 165 126 83 119 43 85 66 76 79 19 23 30 4 -1 2
3 20 37 -1 32 60 31 26 80 116 61 62 80 63 20 34 5 -3 10 44 29 51 93 170 277 226 204 81 97 122 152 118 116 101 86 69 77 53 72 64 33 29 36 32
76 36 55 65 101 26 83 66 94 78 102 65 55 27 40 26 0 -21 -17 -16 40 8 72 193 229 284 224 193 153 145 117 115 108 114 92 69 53 72 82 80 79 48 54 27
77 27 43 17 86 72 64 84 88 103 85 93 75 29 45 18 8 -16 -41 -11 36 45 81 121 206 245 223 210 176 79 72 121 114 96 89 99 68 70 82 86 82 75 53 65
22 73 88 82 112 97 86 38 73 83 98 71 79 31 86 77 43 21 -18 7 47 15 65 172 217 183 239 188 192 202 190 198 188 157 76 75 77 75 68 61 74 80 64 61
67 67 67 60 53 80 76 36 47 79 87 67 91 71 81 125 89 37 8 30 58 57 20 110 213 217 184 183 180 175 224 248 266 203 130 87 86 81 70 59 68 71 65 54
59 53 35 33 28 35 47 63 53 74 67 74 58 87 49 104 85 52 36 30 44 67 31 81 125 213 180 191 170 143 133 186 281 245 146 160 135 134 109 75 71 81 87 77
94 84 90 90 57 70 45 43 54 66 71 53 43 48 69 83 57 95 57 32 30 45 52 12 42 121 103 115 131 172 165 132 121 119 141 176 85 138 125 68 52 98 126 119
117 147 163 118 88 47 62 20 42 63 71 77 68 56 55 105 89 93 58 5 8 37 64 39 36 56 55 102 119 117 125 124 139 161 146 131 210 131 78 83 58 151 171 185
155 222 177 142 126 82 28 52 61 69 67 61 44 41 55 71 76 70 49 -15 22 66 71 78 53 34 35 87 115 150 157 134 114 121 97 92 143 114 48 69 69 76 128 156
74 89 124 124 110 80 84 69 58 56 54 62 32 56 76 129 159 129 72 51 -3 62 96 68 56 10 -55 -83 -38 43 69 117 100 162 181 168 115 117 72 85 86 115 139 148
109 121 116 135 144 105 87 97 67 102 68 49 106 85 63 56 93 102 96 106 79 35 11 34 36 -49 -35 -37 -118 -110 -61 -83 -93 2 41 96 68 76 70 82 149 156 159 172
118 104 96 121 131 81 74 104 89 71 6 21 52 58 68 32 18 22 63 102 96 123 51 6 2 62 73 46 72 31 -67 -161 -147 -93 75 33 48 50 63 86 102 113 128 141
84 101 87 105 81 52 119 55 55 -10 -18 46 46 26 61 45 42 82 36 82 89 64 47 56 73 65 77 91 120 128 90 31 46 20 53 83 89 81 93 120 118 115 117 111
96 78 81 53 28 20 35 9 -3 -25 -41 -14 -23 -10 2 28 87 81 103 42 30 34 20 16 25 30 67 88 97 129 75 67 82 103 110 105 136 119 97 84 78 80 75 67
85 75 83 53 -16 3 -43 -16 35 1 -17 -18 8 -14 6 20 -9 -7 -87 -71 15 27 37 31 31 43 46 42 56 53 64 80 111 112 115 105 102 98 114 125 113 81 70 63
72 111 95 41 -4 -18 -13 -6 8 3 8 -7 -1 -9 -52 -13 -18 12 -18 23 36 33 38 28 32 35 42 36 51 49 60 84 109 102 93 101 99 107 116 134 108 78 75 62
86 108 118 74 36 52 -1 -16 6 29 26 18 14 -15 -45 -6 25 37 19 24 40 49 41 51 42 42 28 26 38 41 48 62 84 98 95 82 70 66 68 73 114 154 99 107
Wind_Speed
26 23 4 9 10 27 31 32 34 27 21 19 18 24 21 30 27 13 16 40 44 47 49 50 51 46 56 55 54 56 55 53 53 49 44 44 44 40 41 41 44 44 37 35
34 40 40 7 11 37 29 33 37 33 19 19 20 23 20 26 32 34 21 44 40 47 45 52 55 45 47 54 56 56 53 51 53 53 46 42 41 42 41 43 45 43 41 31
15 16 17 12 16 24 25 9 10 30 25 25 29 36 17 19 24 36 49 52 50 42 48 44 47 52 39 54 59 57 56 50 46 49 35 31 37 38 37 36 46 45 44 34
29 5 17 15 38 4 13 14 3 21 26 37 21 37 33 18 25 27 38 53 62 45 19 42 42 47 44 48 56 61 61 53 48 24 49 47 48 47 45 43 45 46 46 42
28 32 18 24 16 14 12 8 23 18 27 39 34 41 38 36 17 28 36 56 55 64 24 32 46 44 53 30 42 55 56 56 43 29 41 54 47 47 42 46 45 45 46 46
43 29 21 19 23 12 26 16 24 30 30 44 51 38 41 40 43 44 41 40 51 52 39 24 31 32 22 18 13 42 24 28 23 7 27 36 54 49 47 45 49 47 46 46
30 24 27 18 29 25 24 17 31 34 35 43 38 33 48 46 47 49 53 55 39 43 30 46 26 29 22 19 15 14 22 23 26 45 44 29 55 56 54 49 52 35 44 46
27 31 39 27 2 24 22 16 25 33 35 41 34 43 39 43 46 45 47 53 9 21 24 23 25 21 31 24 18 22 45 23 26 67 22 29 30 56 55 50 46 54 40 39
28 32 36 32 26 23 30 23 24 30 38 44 43 44 46 44 42 44 46 43 20 14 29 35 59 30 26 28 34 29 40 32 12 58 28 24 14 18 58 51 49 55 55 52
28 37 35 40 30 30 29 21 32 37 38 44 41 46 47 41 47 50 47 47 43 42 37 50 29 34 36 33 32 27 24 32 16 13 31 45 35 56 45 44 42 48 42 44
27 33 38 34 36 34 32 35 32 29 34 39 48 47 35 44 47 48 49 51 55 52 28 27 40 35 36 38 36 29 21 21 16 14 27 40 42 42 50 29 28 28 40 53
34 29 34 22 28 31 29 30 30 35 40 40 42 50 37 40 42 49 54 56 59 46 31 23 31 37 38 38 39 51 21 29 33 32 31 26 47 42 41 44 26 21 27 30
27 34 28 31 37 33 35 35 33 30 35 41 50 56 41 48 47 45 53 51 43 37 25 17 16 28 53 47 42 41 24 30 30 35 47 41 42 44 45 44 37 34 39 29
29 32 30 31 33 30 38 40 40 40 48 52 57 62 54 49 46 47 48 46 35 32 26 23 16 29 40 33 38 35 30 27 29 33 40 46 48 49 51 60 53 49 47 49
31 28 27 31 30 31 38 41 37 41 47 54 61 54 52 45 46 47 45 42 34 30 28 27 20 25 32 32 39 37 35 36 27 23 30 44 44 47 50 53 45 39 39 41
33 32 28 29 35 40 44 48 42 47 49 54 58 59 45 42 43 42 37 37 30 28 27 26 25 26 29 32 31 41 36 40 32 32 30 35 35 37 44 51 52 36 32 30
31 26 27 34 39 49 52 44 37 42 40 40 49 36 33 34 38 37 34 31 27 25 27 31 27 26 40 24 20 22 37 35 31 38 43 36 32 35 40 43 40 30 26 24
30 25 27 35 35 33 43 40 46 45 44 28 35 35 30 36 30 27 27 32 32 29 23 18 16 17 21 16 8 14 16 29 33 39 28 36 30 36 46 40 35 28 27 24
25 19 26 25 24 40 41 44 42 35 40 22 27 36 32 27 20 25 21 22 22 18 17 17 20 19 22 22 15 6 6 18 27 27 34 42 33 34 42 44 43 37 30 30
27 28 28 27 36 37 32 41 26 28 47 33 21 27 24 16 14 18 14 13 14 17 19 21 23 20 17 19 17 19 8 27 17 10 18 28 24 32 33 30 32 34 29 26
30 34 31 29 34 30 25 34 24 26 41 25 25 12 12 14 31 5 11 9 13 13 14 15 15 22 19 21 16 27 16 12 13 15 14 15 11 13 13 15 14 14 15 19
21 27 31 32 32 28 17 21 20 27 41 23 32 21 12 19 17 9 19 8 12 15 18 18 18 24 23 18 15 23 23 22 20 21 17 14 12 14 14 11 12 15 13 15
22 23 26 20 27 25 19 37 35 36 35 32 42 44 47 24 11 25 6 9 10 15 15 18 21 27 19 13 15 21 17 20 21 24 23 23 15 13 14 14 15 15 17 15
24 20 24 24 25 37 35 38 36 30 29 25 40 27 39 31 36 54 60 44 13 11 12 12 13 16 22 22 24 23 21 23 24 24 24 24 25 24 22 18 17 17 17 19
19 15 18 22 31 29 40 40 37 24 23 16 14 10 21 39 51 27 23 8 11 13 14 17 17 17 20 22 22 22 21 20 19 18 20 21 21 20 20 20 21 19 22 23
12 13 15 15 10 18 40 43 15 21 23 17 20 13 10 8 29 10 12 11 12 13 16 19 22 21 21 22 22 22 22 20 18 17 17 17 17 18 18 18 20 24 24 25
Wind_Direction
282 291 296 118 92 316 332 320 323 347 25 78 120 326 129 145 134 96 97 158 160 165 166 161 160 147 164 169 176 169 166 176 186 172 221 222 220 224 222 225 198 195 245 159
271 269 171 61 112 198 329 322 307 318 20 19 15 149 129 143 155 156 138 163 157 167 160 167 169 154 154 167 174 180 170 164 174 185 214 227 230 227 234 212 209 226 227 268
313 328 306 322 322 322 327 149 21 322 344 331 325 312 357 120 147 170 187 181 171 159 166 163 162 167 153 168 178 178 179 166 155 164 245 256 243 240 242 255 212 215 194 255
287 232 340 322 292 133 340 144 45 326 322 306 331 296 325 360 164 171 177 185 195 171 152 162 164 164 164 166 176 186 190 174 165 259 229 221 220 219 218 222 212 208 198 213
300 302 338 325 354 16 24 51 149 341 312 301 304 300 306 320 340 178 179 195 188 194 158 162 168 168 170 160 165 175 182 180 160 143 158 207 226 227 232 226 219 216 214 214
275 312 334 347 352 55 337 358 326 320 311 293 283 301 299 312 308 295 199 186 187 181 233 253 175 176 184 239 228 166 156 159 151 150 212 263 224 226 225 237 223 214 214 219
304 327 325 344 326 347 326 320 308 302 298 295 318 306 298 300 300 294 278 233 188 186 252 251 248 181 196 203 217 188 156 156 157 250 256 269 225 230 221 233 209 155 188 213
319 309 320 323 55 340 338 307 307 304 302 305 321 303 309 307 303 304 294 280 257 191 201 234 226 207 185 191 199 166 170 160 162 211 273 267 271 231 233 242 249 213 171 177
326 319 327 340 326 333 331 305 318 315 312 306 304 304 303 306 310 310 305 305 296 197 192 220 240 238 222 214 181 179 173 172 194 244 272 269 271 275 243 255 251 232 234 242
329 316 325 325 326 324 330 342 306 308 306 302 308 300 302 320 307 301 298 298 287 275 268 253 236 227 239 188 187 191 194 178 189 252 271 261 267 251 266 266 269 260 272 268
335 330 324 329 328 314 314 314 317 317 308 305 300 303 321 316 314 298 297 290 274 273 285 259 249 232 225 243 244 239 227 214 233 221 269 267 267 266 261 276 280 285 279 265
326 337 334 341 344 351 347 333 325 305 299 304 305 301 322 324 326 307 292 297 293 296 294 275 256 232 228 234 246 249 230 245 260 266 267 271 267 271 268 265 276 283 291 296
338 326 335 324 313 326 325 327 330 323 311 301 296 295 314 312 317 319 308 310 315 306 301 288 256 220 232 242 248 250 242 252 260 265 264 269 271 270 270 269 273 279 280 290
346 335 336 328 323 326 316 313 314 310 298 297 294 292 297 304 309 310 310 315 317 316 299 284 261 239 231 242 245 249 252 252 257 269 270 268 268 269 266 260 265 271 273 272
341 348 345 338 339 332 323 314 313 309 303 296 295 294 299 302 302 305 305 322 325 303 298 283 273 251 247 248 252 259 263 262 265 267 265 271 270 270 270 268 273 273 275 276
340 336 342 341 333 328 320 312 312 305 303 299 296 291 304 306 300 307 321 320 315 305 291 288 281 271 261 262 265 264 265 266 269 266 272 265 276 278 271 270 269 273 276 280
331 337 334 332 328 313 315 321 325 313 313 312 300 304 322 316 295 308 325 323 319 318 304 284 280 284 272 284 269 260 263 270 274 271 274 265 265 274 271 275 278 278 278 288
326 333 333 329 330 333 329 336 324 312 309 315 312 309 322 299 304 325 337 305 298 298 307 2 332 358 20 330 265 281 275 276 273 268 272 269 278 265 264 272 276 285 290 295
340 2 341 342 342 332 332 336 339 332 310 317 318 306 322 320 321 312 326 327 331 314 321 10 22 355 1 346 3 353 306 294 286 278 264 268 280 271 270 266 269 278 292 292
343 346 337 341 330 327 343 342 359 1 308 308 323 322 316 2 322 287 308 0 349 10 25 31 27 2 330 330 8 22 359 75 30 357 297 275 289 271 278 279 272 275 290 301
326 330 338 344 335 341 344 349 1 345 292 351 312 20 66 50 278 303 23 336 342 329 359 2 344 252 276 264 26 60 37 324 339 355 331 336 325 311 301 303 309 307 315 314
339 339 344 349 347 349 25 25 34 325 280 139 153 118 66 323 55 35 70 21 11 7 5 359 347 15 17 0 29 58 58 34 359 3 347 353 331 318 314 332 327 332 340 326
338 352 0 27 12 27 8 255 234 285 271 165 165 182 156 95 22 84 343 339 9 19 15 19 26 37 6 337 13 44 15 29 23 33 26 22 346 319 320 319 313 316 308 338
329 6 12 23 333 178 185 231 245 286 281 254 199 78 104 89 109 134 149 115 25 1 347 324 327 2 32 29 40 44 41 42 41 32 36 31 41 32 19 342 323 324 327 324
342 53 35 20 298 301 213 196 235 310 354 325 270 324 71 114 132 88 71 0 20 13 13 24 18 12 30 36 31 34 32 23 15 12 18 24 17 13 13 6 5 338 326 321
352 18 29 53 51 72 192 170 4 74 65 10 60 55 359 289 225 355 20 17 5 10 23 39 51 46 48 48 36 29 26 28 21 6 1 3 3 3 1 358 349 343 342 341